JLY1240 SBSP-SBRJ

Flight info

Callsign JLY1240
Flight time 0h 35m
Altitude 27000
Route NIBRU UZ171 KEVUN
Aircraft B737/M-SDE2E3FGHIRWXY/LB1

Departure

Time 2026-05-03 22:42
Airport Congonhas–Deputado Freitas Nobre Airport (SBSP)

Arrival

Time 2026-05-03 23:18
Airport Santos Dumont Airport (SBRJ)
Time Latitude Longitude Altitude Speed Heading
2026-05-03 21:26 -23.62570 -46.65925 2599 ft 0 kts 237°
2026-05-03 22:35 -23.62563 -46.65912 2600 ft 4 kts 248°
2026-05-03 22:36 -23.62558 -46.65889 2600 ft 4 kts 285°
2026-05-03 22:36 -23.62568 -46.65871 2600 ft 2 kts 327°
2026-05-03 22:36 -23.62569 -46.65870 2600 ft 1 kts 328°
2026-05-03 22:38 -23.62566 -46.65873 2600 ft 2 kts 328°
2026-05-03 22:38 -23.62526 -46.65888 2600 ft 10 kts 352°
2026-05-03 22:39 -23.62439 -46.65913 2600 ft 16 kts 332°
2026-05-03 22:39 -23.62331 -46.65987 2599 ft 19 kts 327°
2026-05-03 22:39 -23.62219 -46.66056 2592 ft 18 kts 331°
2026-05-03 22:39 -23.62150 -46.66104 2593 ft 11 kts 327°
2026-05-03 22:40 -23.62123 -46.66123 2593 ft 0 kts 327°
2026-05-03 22:40 -23.62116 -46.66128 2597 ft 3 kts 327°
2026-05-03 22:41 -23.62080 -46.66139 2594 ft 9 kts
2026-05-03 22:41 -23.62020 -46.66104 2595 ft 4 kts 56°
2026-05-03 22:41 -23.62038 -46.66078 2586 ft 7 kts 153°
2026-05-03 22:41 -23.62283 -46.65912 2599 ft 83 kts 147°
2026-05-03 22:42 -23.62984 -46.65424 2610 ft 153 kts 148°
2026-05-03 22:42 -23.64013 -46.64751 3021 ft 186 kts 148°
2026-05-03 22:42 -23.65064 -46.63953 4213 ft 177 kts 131°
2026-05-03 22:42 -23.65659 -46.62814 5294 ft 177 kts 116°
2026-05-03 22:43 -23.66235 -46.61496 5690 ft 210 kts 116°
2026-05-03 22:43 -23.66925 -46.59957 6052 ft 239 kts 116°
2026-05-03 22:43 -23.67730 -46.58215 6480 ft 269 kts 117°
2026-05-03 22:43 -23.68309 -46.56997 7028 ft 277 kts 117°
2026-05-03 22:44 -23.69220 -46.55113 7949 ft 284 kts 118°
2026-05-03 22:44 -23.70167 -46.53177 8835 ft 292 kts 118°
2026-05-03 22:44 -23.71139 -46.51199 9765 ft 300 kts 118°
2026-05-03 22:44 -23.71876 -46.49034 10565 ft 310 kts 98°
2026-05-03 22:45 -23.71837 -46.46605 10915 ft 336 kts 82°
2026-05-03 22:45 -23.71477 -46.43979 11173 ft 362 kts 80°
2026-05-03 22:45 -23.71043 -46.41224 11777 ft 373 kts 79°
2026-05-03 22:45 -23.70599 -46.38415 12621 ft 377 kts 80°
2026-05-03 22:46 -23.70164 -46.35577 13497 ft 381 kts 81°
2026-05-03 22:46 -23.69741 -46.32728 14226 ft 388 kts 81°
2026-05-03 22:46 -23.69316 -46.29800 14932 ft 393 kts 81°
2026-05-03 22:46 -23.68890 -46.26828 15628 ft 400 kts 82°
2026-05-03 22:47 -23.68457 -46.23798 16297 ft 407 kts 82°
2026-05-03 22:47 -23.68017 -46.20716 16965 ft 414 kts 81°
2026-05-03 22:47 -23.67567 -46.17576 17626 ft 421 kts 81°
2026-05-03 22:47 -23.67111 -46.14396 18253 ft 428 kts 81°
2026-05-03 22:48 -23.66645 -46.11155 18813 ft 435 kts 81°
2026-05-03 22:48 -23.66174 -46.07876 19368 ft 440 kts 82°
2026-05-03 22:48 -23.65752 -46.04938 19869 ft 445 kts 82°
2026-05-03 22:48 -23.65323 -46.01958 20356 ft 450 kts 82°
2026-05-03 22:49 -23.64860 -45.98743 20861 ft 455 kts 82°
2026-05-03 22:49 -23.64366 -45.95313 21397 ft 461 kts 81°
2026-05-03 22:49 -23.63863 -45.91835 21929 ft 466 kts 81°
2026-05-03 22:49 -23.63355 -45.88321 22451 ft 471 kts 81°
2026-05-03 22:50 -23.62841 -45.84776 22961 ft 477 kts 81°
2026-05-03 22:50 -23.62319 -45.81183 23457 ft 482 kts 81°
2026-05-03 22:50 -23.61791 -45.77548 23917 ft 487 kts 81°
2026-05-03 22:50 -23.61256 -45.73874 24329 ft 491 kts 81°
2026-05-03 22:51 -23.60723 -45.70225 24767 ft 494 kts 81°
2026-05-03 22:51 -23.60180 -45.66507 25169 ft 498 kts 81°
2026-05-03 22:51 -23.59630 -45.62753 25573 ft 502 kts 81°
2026-05-03 22:51 -23.59353 -45.60868 25778 ft 504 kts 80°
2026-05-03 22:52 -23.58798 -45.57081 26183 ft 507 kts 80°
2026-05-03 22:52 -23.58239 -45.53277 26630 ft 509 kts 80°
2026-05-03 22:52 -23.57677 -45.49456 27122 ft 511 kts 79°
2026-05-03 22:52 -23.57089 -45.45614 27233 ft 518 kts 78°
2026-05-03 22:53 -23.56352 -45.41745 27244 ft 524 kts 76°
2026-05-03 22:53 -23.55515 -45.37863 27246 ft 530 kts 75°
2026-05-03 22:53 -23.54635 -45.33945 27248 ft 534 kts 75°
2026-05-03 22:53 -23.53756 -45.30018 27233 ft 533 kts 75°
2026-05-03 22:54 -23.52892 -45.26074 27232 ft 534 kts 75°
2026-05-03 22:54 -23.52045 -45.22138 27239 ft 534 kts 75°
2026-05-03 22:54 -23.51207 -45.18201 27226 ft 534 kts 75°
2026-05-03 22:54 -23.50370 -45.14260 27246 ft 535 kts 75°
2026-05-03 22:55 -23.49530 -45.10311 27242 ft 535 kts 75°
2026-05-03 22:55 -23.48696 -45.06398 27236 ft 535 kts 75°
2026-05-03 22:55 -23.47855 -45.02458 27234 ft 535 kts 75°
2026-05-03 22:55 -23.47010 -44.98511 27236 ft 535 kts 75°
2026-05-03 22:56 -23.46164 -44.94569 27211 ft 534 kts 75°
2026-05-03 22:56 -23.45305 -44.90638 27228 ft 532 kts 75°
2026-05-03 22:56 -23.44436 -44.86722 27229 ft 531 kts 75°
2026-05-03 22:56 -23.43562 -44.82814 27230 ft 531 kts 74°
2026-05-03 22:57 -23.42687 -44.78904 27243 ft 530 kts 75°
2026-05-03 22:57 -23.41814 -44.75002 27241 ft 530 kts 75°
2026-05-03 22:57 -23.40954 -44.71151 27238 ft 531 kts 75°
2026-05-03 22:57 -23.40081 -44.67235 27231 ft 531 kts 75°
2026-05-03 22:58 -23.39208 -44.63328 26984 ft 532 kts 75°
2026-05-03 22:58 -23.38327 -44.59389 25830 ft 538 kts 75°
2026-05-03 22:58 -23.37439 -44.55423 24644 ft 538 kts 76°
2026-05-03 22:58 -23.36552 -44.51460 23642 ft 535 kts 76°
2026-05-03 22:59 -23.35682 -44.47577 22714 ft 523 kts 76°
2026-05-03 22:59 -23.34829 -44.43783 21861 ft 515 kts 76°
2026-05-03 22:59 -23.33810 -44.40119 21254 ft 499 kts 67°
2026-05-03 22:59 -23.32411 -44.36714 20501 ft 488 kts 63°
2026-05-03 23:00 -23.30913 -44.33425 19667 ft 481 kts 62°
2026-05-03 23:00 -23.29420 -44.30199 18879 ft 474 kts 62°
2026-05-03 23:00 -23.27970 -44.27000 18069 ft 466 kts 63°
2026-05-03 23:00 -23.26580 -44.23852 17269 ft 457 kts 63°
2026-05-03 23:01 -23.25240 -44.20762 16486 ft 449 kts 64°
2026-05-03 23:01 -23.23930 -44.17713 15732 ft 440 kts 64°
2026-05-03 23:01 -23.22646 -44.14722 15012 ft 431 kts 64°
2026-05-03 23:01 -23.21387 -44.11795 14307 ft 423 kts 65°
2026-05-03 23:02 -23.20149 -44.08927 13562 ft 415 kts 65°
2026-05-03 23:02 -23.18933 -44.06181 13140 ft 400 kts 63°
2026-05-03 23:02 -23.17717 -44.03550 12996 ft 379 kts 63°
2026-05-03 23:02 -23.16555 -44.01048 12861 ft 360 kts 63°
2026-05-03 23:03 -23.15459 -43.98662 12745 ft 344 kts 64°
2026-05-03 23:03 -23.14470 -43.96389 12654 ft 328 kts 65°
2026-05-03 23:03 -23.13520 -43.94151 12544 ft 314 kts 65°
2026-05-03 23:03 -23.12640 -43.92070 12443 ft 302 kts 65°
2026-05-03 23:04 -23.11769 -43.90015 12152 ft 297 kts 65°
2026-05-03 23:04 -23.10900 -43.87972 11759 ft 297 kts 64°
2026-05-03 23:04 -23.10034 -43.85942 11398 ft 295 kts 64°
2026-05-03 23:04 -23.09174 -43.83930 11065 ft 292 kts 64°
2026-05-03 23:05 -23.08320 -43.81934 10717 ft 291 kts 64°
2026-05-03 23:05 -23.07465 -43.79939 10333 ft 291 kts 64°
2026-05-03 23:05 -23.06617 -43.77960 10027 ft 287 kts 64°
2026-05-03 23:05 -23.05777 -43.76001 9660 ft 285 kts 63°
2026-05-03 23:06 -23.04942 -43.74054 9265 ft 285 kts 64°
2026-05-03 23:06 -23.04106 -43.72110 8904 ft 283 kts 64°
2026-05-03 23:06 -23.03279 -43.70183 8530 ft 281 kts 64°
2026-05-03 23:06 -23.02442 -43.68255 8102 ft 283 kts 64°
2026-05-03 23:07 -23.01608 -43.66352 7744 ft 281 kts 64°
2026-05-03 23:07 -23.00773 -43.64447 7467 ft 277 kts 64°
2026-05-03 23:07 -22.99945 -43.62557 7095 ft 276 kts 65°
2026-05-03 23:07 -22.99128 -43.60697 6884 ft 269 kts 65°
2026-05-03 23:08 -22.98342 -43.58909 6699 ft 254 kts 65°
2026-05-03 23:08 -22.97601 -43.57224 6545 ft 239 kts 66°
2026-05-03 23:08 -22.96909 -43.55651 6389 ft 230 kts 66°
2026-05-03 23:08 -22.96229 -43.54107 6278 ft 225 kts 66°
2026-05-03 23:09 -22.95553 -43.52571 6153 ft 227 kts 66°
2026-05-03 23:09 -22.94871 -43.51020 6023 ft 229 kts 67°
2026-05-03 23:09 -22.94201 -43.49450 5826 ft 229 kts 67°
2026-05-03 23:09 -22.93539 -43.47882 5620 ft 227 kts 67°
2026-05-03 23:10 -22.92883 -43.46331 5411 ft 225 kts 67°
2026-05-03 23:10 -22.92241 -43.44816 5227 ft 217 kts 68°
2026-05-03 23:10 -22.91625 -43.43363 5039 ft 207 kts 68°
2026-05-03 23:10 -22.91044 -43.41990 4850 ft 199 kts 67°
2026-05-03 23:11 -22.90476 -43.40650 4694 ft 193 kts 68°
2026-05-03 23:11 -22.89923 -43.39350 4487 ft 185 kts 68°
2026-05-03 23:11 -22.89388 -43.38087 4354 ft 182 kts 69°
2026-05-03 23:11 -22.88863 -43.36860 4135 ft 173 kts 69°
2026-05-03 23:12 -22.88373 -43.35653 4053 ft 182 kts 77°
2026-05-03 23:12 -22.88359 -43.34315 3848 ft 177 kts 100°
2026-05-03 23:12 -22.88489 -43.33020 3602 ft 168 kts 100°
2026-05-03 23:12 -22.88599 -43.31810 3374 ft 154 kts 100°
2026-05-03 23:13 -22.88707 -43.30659 3244 ft 167 kts 101°
2026-05-03 23:13 -22.88837 -43.29316 3322 ft 183 kts 99°
2026-05-03 23:13 -22.88959 -43.27984 3229 ft 170 kts 99°
2026-05-03 23:13 -22.89069 -43.26774 3070 ft 152 kts 101°
2026-05-03 23:14 -22.89400 -43.25800 2893 ft 131 kts 121°
2026-05-03 23:14 -22.89793 -43.24941 2480 ft 129 kts 120°
2026-05-03 23:14 -22.90190 -43.24061 2026 ft 130 kts 119°
2026-05-03 23:14 -22.90580 -43.23192 1746 ft 128 kts 119°
2026-05-03 23:15 -22.90975 -43.22313 1507 ft 131 kts 118°
2026-05-03 23:15 -22.91377 -43.21418 1285 ft 132 kts 118°
2026-05-03 23:15 -22.91770 -43.20531 1101 ft 128 kts 119°
2026-05-03 23:15 -22.92171 -43.19656 1056 ft 131 kts 122°
2026-05-03 23:16 -22.92675 -43.18861 1034 ft 129 kts 134°
2026-05-03 23:16 -22.93373 -43.18231 884 ft 133 kts 151°
2026-05-03 23:16 -22.94196 -43.17733 627 ft 136 kts 141°
2026-05-03 23:16 -22.94613 -43.16848 548 ft 138 kts 91°
2026-05-03 23:17 -22.94086 -43.15959 395 ft 157 kts 27°
2026-05-03 23:17 -22.93053 -43.15916 275 ft 146 kts 343°
2026-05-03 23:17 -22.92123 -43.16198 94 ft 134 kts 349°
2026-05-03 23:17 -22.91232 -43.16273 19 ft 111 kts 356°
2026-05-03 23:18 -22.90738 -43.16304 26 ft 56 kts 356°
2026-05-03 23:18 -22.90506 -43.16336 23 ft 17 kts 311°
2026-05-03 23:18 -22.90494 -43.16433 22 ft 13 kts 266°
2026-05-03 23:18 -22.90501 -43.16527 21 ft 12 kts 256°
2026-05-03 23:19 -22.90576 -43.16553 23 ft 12 kts 177°
2026-05-03 23:19 -22.90658 -43.16549 22 ft 12 kts 176°
2026-05-03 23:19 -22.90739 -43.16542 21 ft 11 kts 176°
2026-05-03 23:19 -22.90816 -43.16546 21 ft 11 kts 192°
2026-05-03 23:20 -22.90892 -43.16547 24 ft 11 kts 176°
2026-05-03 23:20 -22.90964 -43.16543 21 ft 10 kts 177°
2026-05-03 23:20 -22.91035 -43.16538 21 ft 10 kts 176°
2026-05-03 23:20 -22.91102 -43.16526 21 ft 10 kts 165°
2026-05-03 23:21 -22.91167 -43.16514 21 ft 9 kts 178°
2026-05-03 23:21 -22.91231 -43.16511 22 ft 9 kts 178°
2026-05-03 23:21 -22.91252 -43.16511 21 ft 0 kts 186°
2026-05-03 23:21 -22.91253 -43.16512 21 ft 1 kts 204°
2026-05-03 23:22 -22.91245 -43.16575 21 ft 2 kts 268°
2026-05-03 23:22 -22.91245 -43.16584 21 ft 0 kts 269°